Theta_e
321 319 318 318 318 319 318 317 316 315 312 309 314 319 318 315 314 313 312 310 310 309 308 310 311 313 321 321 322 323 321 321 323 323 321 319 318 317 318 317 317 320 317 317 317 316 317
322 319 318 318 319 319 318 317 316 315 312 309 314 318 319 316 315 315 313 313 312 310 308 308 310 315 320 322 321 321 321 321 322 322 322 321 320 319 319 320 319 317 319 317 317 318 318
323 319 318 318 319 319 318 317 316 314 311 310 313 318 318 317 316 315 314 314 313 311 309 308 310 318 319 321 320 320 322 319 320 320 321 322 321 320 319 319 319 320 321 318 319 320 319
323 320 319 318 319 319 318 317 315 314 311 312 315 318 318 316 314 313 314 314 315 313 312 311 314 322 320 321 319 320 317 319 319 319 319 320 321 319 320 319 320 320 318 320 320 317 318
323 320 319 319 319 319 318 317 315 313 312 314 316 315 315 313 310 311 315 316 316 315 316 315 319 319 318 320 317 317 317 317 318 319 320 319 320 319 318 319 319 317 320 319 315 315 316
323 321 319 319 319 319 318 316 314 312 312 316 314 312 311 310 308 310 313 316 318 319 320 319 319 317 317 315 316 316 318 318 317 317 316 319 317 319 316 316 320 319 316 314 314 313 313
323 321 319 319 320 319 317 315 313 312 314 316 313 309 308 307 308 311 314 318 311 315 312 316 314 315 315 316 315 316 317 317 317 316 317 315 318 320 318 317 317 316 315 314 314 314 314
323 322 319 319 320 319 318 314 313 312 315 317 314 309 306 304 313 312 312 312 312 313 311 313 314 315 315 313 314 314 316 315 317 318 315 312 316 317 315 316 316 314 313 313 313 315 315
322 322 320 320 320 319 317 314 312 313 314 314 314 306 302 303 314 313 314 315 318 315 314 316 315 313 313 313 313 314 314 313 318 318 316 315 317 316 315 313 314 315 314 315 317 315 312
320 322 320 320 319 318 316 314 312 313 313 312 312 304 301 304 313 313 312 311 317 316 313 316 314 313 312 313 317 315 315 315 317 315 314 316 318 315 315 314 313 313 313 314 316 315 315
320 322 320 320 319 317 316 314 312 314 313 309 307 301 303 313 312 311 312 310 317 321 314 314 312 311 311 313 314 315 315 313 314 314 312 313 317 315 316 314 311 313 310 313 313 312 308
321 322 320 320 319 317 315 312 312 313 312 305 302 301 307 308 310 310 307 317 321 310 314 312 312 312 313 312 312 310 312 307 309 310 312 313 315 315 316 311 308 308 308 307 308 306 309
321 322 320 320 318 316 313 311 312 311 307 302 300 301 307 310 312 306 315 319 309 312 317 312 312 312 312 311 311 310 307 305 304 306 307 311 314 312 309 308 306 305 306 308 309 310 309
321 321 320 319 317 313 311 311 310 308 300 299 298 299 304 304 305 306 319 311 312 316 314 311 311 311 312 310 309 309 310 307 305 305 305 308 315 307 307 307 307 306 306 309 308 309 308
321 321 319 317 314 311 309 308 305 300 298 299 301 304 307 304 304 314 308 309 310 315 311 311 309 309 310 309 309 309 307 307 306 304 306 306 309 308 307 308 306 307 307 308 308 308 307
321 320 316 312 309 305 304 304 302 299 298 299 306 310 310 303 307 316 310 312 316 312 310 310 310 309 311 309 307 308 309 307 307 305 304 306 305 307 309 308 307 307 306 306 305 307 309
315 314 306 304 302 304 303 302 300 298 297 307 308 307 311 303 312 307 306 312 311 310 311 311 311 310 309 308 307 307 308 307 306 306 306 307 305 306 305 307 307 306 306 307 307 308 309
311 305 299 298 299 298 298 298 297 296 298 307 308 309 309 307 302 305 309 312 311 309 309 309 309 309 310 308 308 309 310 308 305 306 308 305 306 304 305 305 306 306 306 306 306 307 306
299 297 296 296 296 297 297 296 296 296 302 307 306 307 307 309 301 305 307 311 310 309 309 308 308 309 308 309 307 310 308 306 308 306 306 303 302 300 305 306 307 307 306 305 305 304 305
298 297 297 297 297 298 298 297 296 297 300 308 306 306 301 302 304 306 310 310 309 308 309 309 308 308 307 308 307 309 309 308 306 305 305 303 302 302 301 307 306 306 306 305 304 304 303
300 301 302 300 300 296 296 297 297 297 298 305 304 306 301 298 299 305 310 311 309 308 308 308 308 307 307 308 308 306 310 308 307 307 304 304 304 307 307 307 307 306 306 304 304 304 304
297 296 296 295 295 296 296 296 296 297 299 305 305 306 305 304 301 301 305 311 310 308 308 307 308 307 307 308 308 309 309 308 308 306 305 304 304 306 306 306 305 305 304 304 304 305 305
296 296 295 295 295 295 295 295 296 297 301 302 306 307 304 307 303 300 304 310 311 308 308 307 307 307 307 306 304 304 304 304 305 305 304 305 304 303 305 305 304 304 306 305 305 305 306
295 295 295 295 295 297 297 296 295 297 300 305 305 306 306 305 306 304 308 309 309 308 308 306 307 306 305 303 302 303 303 302 302 303 303 304 304 303 304 301 296 304 305 305 306 304 302
295 295 295 294 294 295 298 299 298 298 300 305 305 306 305 305 306 307 308 307 305 305 305 305 304 302 301 302 304 303 303 305 306 303 302 303 302 301 296 304 302 306 305 305 305 303 300
295 295 294 294 294 293 296 298 300 302 303 303 304 306 307 303 302 305 305 305 303 302 303 303 302 301 301 302 300 295 300 305 308 308 304 303 303 302 296 297 301 304 305 304 303 304 299
295 295 294 293 292 292 294 296 297 298 298 299 302 306 305 298 300 302 304 304 302 301 302 303 302 300 300 301 302 301 304 308 305 306 306 305 304 305 303 297 302 305 303 303 305 303 297
295 295 295 294 292 292 294 297 297 296 298 300 301 304 304 295 298 300 301 301 302 300 302 302 299 299 299 302 303 304 304 306 305 305 305 305 306 304 303 304 304 303 302 305 300 297 295
295 295 295 295 294 292 295 298 300 300 296 300 301 302 302 299 297 300 299 298 300 301 300 300 301 302 300 302 300 299 302 300 304 306 305 305 303 304 305 304 300 299 299 296 295 295 294
Wind_Speed
30 29 28 25 23 19 16 13 10 7 4 2 1 3 6 8 10 12 14 15 16 16 16 17 18 18 4 5 1 4 10 12 14 14 10 5 5 5 5 5 9 2 6 10 12 11 12
32 31 29 26 24 20 17 13 10 7 4 2 1 3 6 9 11 13 14 15 16 15 15 15 16 14 3 4 2 8 12 10 16 12 7 6 2 4 2 3 1 4 8 10 8 10 5
33 32 30 27 24 21 18 15 11 8 4 2 1 4 6 9 12 14 15 16 16 15 13 12 12 10 3 2 7 6 11 12 13 13 4 6 4 5 3 7 3 4 5 9 5 4 4
33 33 31 29 25 22 19 15 12 8 5 2 1 4 7 10 13 15 16 17 17 15 11 9 8 4 2 2 8 10 12 9 13 14 12 12 4 1 3 3 7 6 4 6 7 10 5
34 33 32 29 27 23 20 17 13 9 5 2 1 4 7 10 12 15 16 17 16 11 8 4 3 4 2 2 8 15 9 8 15 11 17 14 2 1 5 2 5 6 2 3 9 5 3
34 34 33 31 27 23 20 16 13 9 6 3 1 4 7 9 11 14 14 14 10 3 5 3 2 3 4 4 10 16 9 10 4 7 7 5 4 2 4 4 1 4 4 4 4 8 8
35 35 35 31 29 25 21 17 13 9 6 4 1 4 6 8 9 13 13 3 7 5 7 1 4 2 2 11 6 10 12 10 7 5 2 4 5 1 4 1 2 2 4 3 5 5 8
35 35 34 34 30 26 21 16 13 10 7 4 0 4 5 5 8 13 9 7 3 1 5 6 5 4 1 5 4 9 12 5 4 3 7 7 4 3 7 8 7 8 6 5 6 6 5
36 35 35 33 30 26 22 16 13 10 7 4 1 3 5 2 1 10 20 9 4 2 2 6 1 3 3 4 3 6 4 4 1 4 4 4 2 7 6 8 8 4 5 4 3 9 4
35 37 36 34 29 26 22 17 14 10 7 4 2 3 5 0 4 4 4 6 4 1 4 1 3 2 3 4 3 3 5 2 6 4 5 1 2 6 6 6 5 4 6 6 6 6 2
40 38 37 34 31 27 21 18 14 11 7 3 3 3 4 3 4 4 4 5 2 0 4 1 1 3 4 1 2 3 4 5 3 4 4 4 5 6 7 4 3 5 6 3 3 3 3
43 39 39 36 31 24 21 19 14 11 8 4 3 3 2 3 5 3 3 1 1 6 2 2 2 1 3 4 4 6 6 9 2 3 2 4 3 4 2 3 4 5 5 6 3 4 3
41 39 38 34 29 26 23 18 15 11 7 5 5 3 2 1 2 2 2 3 5 5 1 1 2 1 2 2 4 6 5 8 5 5 7 7 5 4 5 4 7 11 6 4 5 5 4
41 41 39 35 31 27 22 18 14 11 9 7 7 6 3 2 2 3 4 5 2 2 1 1 2 2 2 2 2 4 3 4 7 5 3 3 4 6 7 3 1 3 3 4 2 3 4
41 41 39 35 31 26 21 18 15 13 10 8 8 6 1 4 3 3 5 4 7 3 1 2 2 2 0 1 2 4 4 2 3 6 4 3 3 5 5 2 3 5 4 2 1 3 3
44 42 39 34 30 25 22 18 15 12 11 10 7 4 2 4 3 3 5 4 2 1 2 2 3 2 2 3 1 3 2 4 3 4 1 3 3 3 5 4 5 2 2 4 3 2 5
46 41 35 31 27 22 18 16 15 14 14 11 5 3 1 2 2 5 4 5 2 4 3 3 1 1 2 3 3 1 2 4 3 4 6 3 3 6 4 2 1 4 4 4 2 4 3
42 38 30 28 24 20 18 16 16 15 16 9 4 3 3 1 4 1 3 4 1 2 4 3 2 1 1 2 2 3 4 1 3 1 3 3 3 3 4 7 1 6 3 4 4 4 1
33 34 28 25 22 18 17 15 14 15 17 7 4 2 3 4 4 1 3 1 3 3 3 3 1 3 3 2 3 4 4 1 4 4 3 1 1 2 4 6 6 5 4 3 2 2 7
28 27 25 23 17 14 13 13 15 16 17 5 3 2 4 4 0 5 4 3 4 3 2 3 3 3 4 2 4 4 3 2 3 3 4 4 2 4 5 2 1 5 8 5 1 3 3
28 23 19 14 15 13 11 11 12 14 15 4 2 4 4 3 3 4 4 7 5 4 1 2 2 3 4 2 1 4 3 3 4 5 2 4 2 1 4 5 3 5 7 4 5 9 6
24 22 22 17 11 9 10 10 12 12 12 2 4 3 2 3 3 7 2 4 8 4 5 3 5 4 2 5 5 5 5 3 4 3 3 1 2 2 4 4 4 4 7 8 5 1 4
23 22 19 16 13 12 12 12 11 13 13 2 2 0 3 2 4 6 6 6 9 9 5 6 3 5 5 5 5 5 4 5 6 7 4 4 3 2 3 5 7 4 4 1 2 9 3
23 22 18 15 14 14 11 10 10 12 16 3 2 2 3 2 3 6 6 4 6 5 8 2 6 6 2 3 3 3 4 3 4 4 4 5 4 3 2 4 2 4 2 6 8 7 6
20 19 15 13 14 14 13 12 12 12 14 9 4 3 3 2 1 2 8 7 8 8 5 4 4 1 0 4 4 4 5 6 3 5 6 5 5 1 3 2 7 1 3 2 3 3 6
18 17 16 15 13 13 12 10 10 12 12 9 7 6 4 5 2 4 4 8 5 4 3 3 2 6 6 3 4 4 4 5 3 1 5 5 5 4 3 3 5 4 3 5 4 4 3
16 16 16 16 14 13 14 10 8 8 8 9 5 6 5 3 3 4 3 5 6 5 4 3 3 3 4 3 3 3 4 3 4 7 5 3 2 6 3 3 7 3 3 4 2 2 4
16 15 15 15 15 13 13 13 10 8 9 8 9 5 3 3 3 7 6 4 4 3 5 5 4 3 3 2 3 3 3 4 2 3 6 8 6 4 3 2 8 1 2 2 2 3 2
13 13 12 12 13 13 13 13 14 10 10 9 6 12 10 10 3 6 14 13 10 3 5 1 5 4 4 3 0 2 1 1 2 3 1 3 6 5 7 5 2 4 5 5 4 4 3
Wind_Direction
200 200 196 192 187 187 184 177 175 174 169 148 359 345 347 346 345 345 346 346 350 351 350 348 351 356 27 49 51 36 10 350 344 350 4 12 30 6 358 327 346 65 329 327 330 328 310
199 199 194 193 188 186 186 182 178 176 173 160 329 336 339 339 340 340 339 341 344 345 346 346 350 1 25 85 17 27 347 350 358 333 344 356 328 266 270 315 297 333 311 298 302 306 296
198 198 194 192 191 186 186 182 180 177 174 189 285 326 334 337 337 334 333 334 333 335 339 341 349 7 47 206 360 5 344 341 351 353 319 293 321 53 346 312 317 281 327 326 327 327 347
198 195 193 192 194 186 189 183 182 182 173 189 290 323 331 335 335 330 328 326 324 326 330 332 342 24 228 34 14 350 347 342 339 335 330 305 302 143 164 288 350 332 51 357 307 5 359
198 194 193 192 195 186 191 184 182 180 174 183 313 329 334 338 336 328 326 322 321 324 321 341 49 32 332 1 357 341 350 308 314 315 315 312 297 178 13 43 1 11 337 325 320 77 337
196 195 191 191 191 185 194 187 184 180 173 171 297 327 335 344 341 329 327 319 326 53 37 62 43 40 2 321 315 320 351 317 301 322 349 49 51 34 22 70 238 312 343 316 316 326 11
196 194 192 188 190 186 191 189 188 179 178 172 267 329 344 354 359 344 346 346 17 354 36 94 292 261 312 337 4 17 350 329 3 39 331 341 76 259 247 297 26 3 39 349 296 343 25
199 193 191 189 189 188 187 188 189 174 184 168 280 332 351 18 39 25 46 74 78 237 326 327 261 293 280 349 327 338 15 38 9 341 335 22 64 299 71 33 46 60 50 346 295 321 20
191 192 191 189 187 188 181 190 191 179 178 169 160 334 343 45 71 40 75 68 9 213 80 311 266 59 289 4 311 321 34 343 331 14 18 121 270 61 74 36 33 356 48 337 268 333 36
190 190 189 188 186 188 181 187 193 179 184 170 130 357 357 70 127 51 61 18 19 137 72 320 16 352 350 350 355 329 352 54 0 20 350 51 337 87 67 51 35 345 339 314 327 4 320
187 188 186 187 186 186 180 187 193 179 182 172 114 59 47 67 103 71 341 338 338 171 34 203 324 301 304 40 272 315 353 23 51 318 57 266 332 61 68 35 3 257 317 283 234 192 57
186 184 183 185 184 180 181 191 185 185 176 166 122 82 147 82 80 59 339 310 115 47 255 111 142 32 11 14 6 332 38 26 19 16 342 250 2 41 82 123 55 287 330 6 44 103 72
186 183 182 182 181 181 183 186 180 179 166 157 126 161 92 39 138 26 37 55 45 117 250 119 128 58 195 26 359 32 68 38 39 19 12 353 21 330 47 38 355 30 34 359 6 11 218
185 181 180 179 180 180 180 181 177 166 165 140 151 124 69 86 12 70 58 54 144 183 99 183 109 27 99 30 10 36 61 32 16 43 67 27 314 360 337 98 292 337 97 124 282 277 258
184 178 178 177 177 177 175 176 174 170 160 143 102 112 100 26 45 73 74 71 199 228 279 90 82 138 233 47 99 78 68 88 20 34 81 28 199 314 45 28 89 315 45 181 192 321 6
185 174 173 172 171 170 171 172 168 161 158 143 133 130 66 34 69 66 77 212 189 99 55 78 135 149 143 212 104 104 97 343 107 49 66 322 313 333 298 24 357 101 258 19 10 322 296
166 163 161 161 162 165 167 170 169 165 164 156 120 77 28 64 86 50 148 217 124 56 81 46 74 5 133 158 153 94 62 2 32 349 63 30 87 295 359 64 349 7 7 22 109 136 198
156 147 149 151 154 157 164 170 169 169 163 148 107 90 11 14 66 70 156 198 119 153 43 98 112 316 68 138 160 79 129 77 10 7 63 339 123 291 272 276 331 101 96 68 94 298 244
123 137 144 142 146 154 158 164 167 169 164 145 104 118 37 342 133 232 267 161 79 153 169 128 154 95 19 86 117 109 100 46 62 75 126 64 44 349 359 351 14 35 55 106 229 137 201
136 135 132 131 136 147 158 169 172 176 176 145 102 97 340 41 248 147 161 191 144 5 104 109 124 87 61 72 38 149 120 194 94 98 132 94 136 178 203 119 343 308 329 352 162 243 231
134 133 121 121 145 145 161 170 186 186 182 156 53 219 185 192 263 182 156 186 150 164 61 92 85 153 157 162 142 147 105 110 70 161 92 110 163 271 287 307 303 269 282 287 254 245 229
119 114 118 122 134 153 176 184 183 188 177 145 134 138 31 178 143 163 157 221 163 170 141 211 138 213 109 153 192 181 143 153 179 210 158 142 242 58 297 332 335 287 284 252 254 20 284
117 111 119 133 144 147 161 178 183 185 172 163 153 206 111 261 140 125 197 216 197 126 37 57 192 98 93 158 138 130 99 109 145 154 172 134 127 85 266 339 338 315 209 36 75 49 354
119 120 118 118 119 116 122 151 167 180 186 180 193 164 93 243 157 191 188 167 151 158 131 27 58 102 199 145 112 54 62 107 132 147 142 138 114 121 243 19 354 221 348 125 103 84 48
105 102 107 104 103 112 111 121 148 170 194 190 168 150 117 181 206 59 123 113 79 65 81 81 34 73 284 69 62 27 348 5 255 204 182 145 124 127 136 221 294 334 109 166 194 127 46
113 112 104 95 82 89 101 104 126 144 155 159 102 98 96 125 303 315 97 137 132 112 55 83 25 37 68 84 81 150 215 226 237 114 176 136 116 132 95 157 231 199 195 252 165 212 32
120 110 99 92 87 84 92 100 116 139 165 164 103 128 107 111 348 3 135 171 122 96 104 134 161 69 59 105 104 164 241 213 208 173 174 155 187 196 165 223 282 285 303 303 120 232 64
124 113 100 90 85 79 78 75 75 102 141 148 89 114 118 112 343 18 18 51 73 93 136 184 67 341 56 123 138 215 181 229 229 213 175 175 168 189 150 212 269 20 22 157 157 67 92
114 103 92 83 77 82 85 78 70 84 124 126 92 92 89 83 157 78 69 52 61 83 124 185 151 153 176 112 104 97 292 0 157 244 232 208 190 178 177 211 134 13 122 103 124 161 225